IK3JLT-13 Weather Reports


time (UTC)temp
C
wind
direction
speed
KPH
gust
KPH
rain 1hr
cm
rain 24hr
cm
rain mn
cm
humidity
%
barometer
mb
20260507221906 14 90 3.2 4.8 0.00 0.00 0.00 75 1014.1
20260507220906 14 0 6.4 9.7 0.00 0.00 0.00 74 1014.1
20260507215905 14 22 6.4 6.4 0.00 0.00 0.00 74 1014.1
20260507214906 15 45 3.2 6.4 0.00 0.00 0.00 74 1014.2
20260507213907 15 45 3.2 4.8 0.00 0.00 0.00 73 1014.1
20260507212906 15 45 3.2 3.2 0.00 0.00 0.00 73 1014.0
20260507211906 15 45 3.2 3.2 0.00 0.00 0.00 73 1014.0
20260507210905 15 315 3.2 4.8 0.00 0.00 0.00 72 1014.0
20260507205905 15 45 1.6 3.2 0.00 0.00 0.00 71 1013.8
20260507204905 16 135 3.2 3.2 0.00 0.00 0.00 71 1013.7
20260507203905 16 90 3.2 6.4 0.00 0.00 0.00 71 1013.5
20260507202905 16 90 3.2 3.2 0.00 0.00 0.00 71 1013.6
20260507201905 16 135 3.2 4.8 0.00 0.00 0.00 70 1013.6
20260507200905 16 90 3.2 4.8 0.00 0.00 0.00 70 1013.5
20260507195905 16 90 3.2 4.8 0.00 0.00 0.00 70 1013.4
20260507194907 16 45 6.4 9.7 0.00 0.00 0.00 70 1013.3
20260507193906 16 45 4.8 6.4 0.00 0.00 0.00 70 1013.2
20260507192906 16 45 6.4 6.4 0.00 0.00 0.00 70 1013.2
20260507191907 16 0 8.0 9.7 0.00 0.00 0.00 71 1013.1
20260507190906 16 90 4.8 6.4 0.00 0.00 0.00 72 1013.0
20260507185906 16 90 4.8 6.4 0.00 0.00 0.00 71 1012.9
20260507184907 16 90 4.8 6.4 0.00 0.00 0.00 71 1012.7
20260507183906 16 45 3.2 4.8 0.00 0.00 0.00 71 1012.5
20260507182905 16 45 4.8 6.4 0.00 0.00 0.00 71 1012.4
20260507181907 17 45 8.0 9.7 0.00 0.00 0.00 70 1012.4
20260507180906 17 68 8.0 11.3 0.00 0.00 0.00 70 1012.2
20260507175907 17 90 14.5 20.9 0.00 0.00 0.00 64 1011.9
20260507174907 17 90 12.9 14.5 0.00 0.00 0.00 62 1011.8
20260507173906 18 90 9.7 12.9 0.00 0.00 0.00 60 1011.8
20260507172906 18 90 14.5 17.7 0.00 0.00 0.00 61 1011.7
20260507171905 18 68 17.7 22.5 0.00 0.00 0.00 60 1011.6
20260507170905 18 90 8.0 9.7 0.00 0.00 0.00 60 1011.6
20260507165907 18 90 12.9 17.7 0.00 0.00 0.00 56 1011.6
20260507164906 19 45 16.1 22.5 0.00 0.00 0.00 53 1011.5
20260507163907 20 45 14.5 19.3 0.00 0.00 0.00 54 1011.3
20260507162906 20 45 12.9 17.7 0.00 0.00 0.00 57 1011.3
20260507161905 19 45 16.1 24.1 0.00 0.00 0.00 60 1011.3
20260507160906 20 68 19.3 27.4 0.00 0.00 0.00 55 1011.3
20260507155906 21 90 14.5 17.7 0.00 0.00 0.00 46 1011.1
20260507154907 21 135 9.7 12.9 0.00 0.00 0.00 48 1010.9
20260507153906 21 180 3.2 3.2 0.00 0.00 0.00 50 1010.9
20260507152906 21 225 6.4 6.4 0.00 0.00 0.00 52 1010.9
20260507151906 20 225 6.4 6.4 0.00 0.00 0.00 54 1010.8
20260507150907 20 180 12.9 14.5 0.00 0.03 0.00 58 1010.4
20260507145906 20 180 14.5 17.7 0.00 0.03 0.00 50 1010.4
20260507144907 20 202 17.7 19.3 0.00 0.05 0.00 50 1010.4
20260507143907 19 180 11.3 12.9 0.00 0.08 0.00 52 1010.2
20260507142906 19 248 3.2 4.8 0.00 0.10 0.00 48 1010.0
20260507141905 20 225 3.2 4.8 0.00 0.18 0.00 44 1009.9
20260507140905 20 0 9.7 12.9 0.00 0.23 0.00 43 1010.2
20260507135906 20 315 19.3 22.5 0.00 0.25 0.00 44 1010.2
20260507134907 20 315 14.5 17.7 0.00 0.25 0.00 42 1010.2
20260507133904 21 270 16.1 19.3 0.00 0.25 0.00 48 1010.2
20260507132904 22 270 9.7 12.9 0.00 0.25 0.00 48 1010.2
20260507131907 22 225 9.7 11.3 0.00 0.25 0.00 47 1010.3
20260507130907 22 270 6.4 8.0 0.00 0.25 0.00 47 1010.2
20260507125906 22 180 14.5 17.7 0.00 0.25 0.00 46 1010.3
20260507124913 22 158 6.4 9.7 0.00 0.25 0.00 41 1010.2
20260507123906 23 180 6.4 6.4 0.00 0.25 0.00 40 1010.1
20260507122906 22 180 12.9 16.1 0.00 0.25 0.00 42 1010.2
20260507121906 22 225 11.3 16.1 0.00 0.25 0.00 44 1010.1
20260507120906 22 270 12.9 16.1 0.00 0.25 0.00 44 1010.2
20260507115907 22 135 11.3 14.5 0.00 0.28 0.00 45 1010.3
20260507114908 22 158 12.9 14.5 0.00 0.28 0.00 51 1010.4
20260507113906 22 180 8.0 11.3 0.00 0.30 0.00 50 1010.4
20260507112908 22 225 8.0 12.9 0.00 0.38 0.00 51 1010.5